Content
SEND FEEDBACK

Daily
Averages
Monthly
Summary
United States of America

GREEN CAMP, OHIO


Home > North America > United States > Ohio
Elevation: 975 feet     Latitude: 40 37N     Longitude: 083 07W

WEATHER
 
SELECT A DAY
Number of Records: 191,221;   Date Range: 5/6/98 - 11/26/14
 
SHARE

PRINT THIS DATA

[ ← Previous Day ]
WEATHER ALMANAC - FEBRUARY 13, 2013
[ Next Day → ]
[ °C ]   °F
Weather ElementAverageHighLow
Temperature27.5 °F30.2 °F (4:49 pm)24.1 °F (7:53 pm)
Dewpoint23.7 °F25 °F (1:53 am)21 °F (7:53 pm)
Humidity85.7 %93 % (5:15 am)75 % (3:53 pm)
Barometer29.84 in29.92 in (1:53 am)29.76 in (4:49 pm)
Wind Speed4.3 mph11.5 mph (8:53 am)
Weather ElementAverage
Visibility6.2 mi
Wind DirectionSSE (151.3 °)

Weather ElementTotal
Precipitation---
Heating Degree Days37.9 (Base 65)
Averaged from 30 records on February 13, 2013
WEATHER CONDITIONS BREAKOUT
WIND DIRECTION BREAKOUT
WEATHER BY HOUR - FEBRUARY 13, 2013
[ °C ]   °F
Local TimeTemperatureDewpointHumidityBarometerVisibilityWind DirectionWind SpeedGust SpeedPrecipitationEventsConditions
1:53 AM28.0 °F25.0 °F88 %29.92 in8.0 miNNW (330°)3.5 mphClear
2:53 AM26.1 °F24.1 °F92 %29.92 in6.0 miNW (310°)3.5 mphClear
3:53 AM26.1 °F24.1 °F92 %29.91 in6.0 miNNW (330°)5.8 mphClear
4:32 AM26.6 °F23.0 °F86 %29.87 in5.0 miNW (310°)3.5 mphMostly Cloudy
4:53 AM26.1 °F24.1 °F92 %29.89 in6.0 miCalmOvercast
5:15 AM26.6 °F24.8 °F93 %29.85 in6.0 miCalmPartly Cloudy
5:53 AM26.1 °F24.1 °F92 %29.88 in6.0 miCalmClear
6:53 AM26.1 °F24.1 °F92 %29.85 in6.0 miCalmScattered Clouds
7:22 AM26.6 °F24.8 °F93 %29.81 in5.0 miNorth (360°)4.6 mphScattered Clouds
7:53 AM26.1 °F24.1 °F92 %29.84 in3.0 miNNE (20°)5.8 mphPartly Cloudy
8:53 AM28.0 °F25.0 °F88 %29.83 in4.0 miNorth (10°)11.5 mphMostly Cloudy
9:06 AM28.4 °F24.8 °F86 %29.80 in5.0 miNNE (20°)9.2 mphOvercast
9:53 AM28.0 °F24.1 °F85 %29.86 in6.0 miNorth (10°)8.1 mphOvercast
10:53 AM28.0 °F24.1 °F85 %29.84 in6.0 miENE (60°)6.9 mphOvercast
11:53 AM28.9 °F24.1 °F82 %29.83 in7.0 miCalmOvercast
12:53 PM28.9 °F24.1 °F82 %29.81 in7.0 miCalmOvercast
1:53 PM30.0 °F24.1 °F79 %29.80 in6.0 miNNW (330°)8.1 mphHaze
2:53 PM30.0 °F24.1 °F79 %29.79 in6.0 miNW (320°)9.2 mphHaze
3:53 PM30.0 °F23.0 °F75 %29.80 in8.0 miNorth (350°)5.8 mphOvercast
4:49 PM30.2 °F23.0 °F75 %29.76 in8.0 miCalmScattered Clouds
4:53 PM30.0 °F24.1 °F79 %29.80 in7.0 miCalmPartly Cloudy
5:12 PM30.2 °F24.8 °F80 %29.77 in7.0 miWest (280°)3.5 mphMostly Cloudy
5:22 PM28.4 °F23.0 °F80 %29.77 in7.0 miWest (280°)4.6 mphScattered Clouds
5:53 PM28.9 °F23.0 °F78 %29.82 in7.0 miWest (270°)3.5 mphPartly Cloudy
6:53 PM27.0 °F23.0 °F85 %29.84 in7.0 miCalmClear
7:53 PM24.1 °F21.0 °F88 %29.86 in6.0 miSSW (200°)4.6 mphClear
8:53 PM25.0 °F21.9 °F88 %29.87 in6.0 miSouth (190°)5.8 mphClear
9:53 PM24.1 °F21.9 °F91 %29.88 in6.0 miSouth (180°)6.9 mphClear
10:53 PM25.0 °F21.9 °F88 %29.88 in6.0 miSouth (190°)6.9 mphClear
11:53 PM27.0 °F23.0 °F85 %29.88 in7.0 miSouth (190°)8.1 mphClear
Hourly data recorded from KMNN, located miles away from Green Camp, Ohio







STORIES FROM OUR PARTNERS